Hourly Weather Roundup
Issued by NWS Central Illinois

Home | Current Version | Previous Version | Text Only | Print | Product List | Glossary On
Versions: 1 2 3 4 5 6 7 8 9 10 11 12 13 14 15 16 17 18 19 20 21 22 23 24 25 26 27 28 29 30 31 32 33 34 35 36 37 38 39 40 41 42 43 44 45 46 47 48 49 50
082
NZUS43 KILX 241710
HWRILX

AREA WEATHER ROUNDUP
NATIONAL WEATHER SERVICE, LINCOLN IL
1100 AM CST TUE JAN 24 2017


CITY           SKY/WX    TMP DP  RH WIND       PRES   REMARKS
BLOOMINGTON    NOT AVBL
CHAMPAIGN      CLOUDY    40  31  70 CALM      29.91R
DANVILLE       CLOUDY    38  33  79 W5        29.89R WCI  35
DECATUR        CLOUDY    39  34  82 E6        29.90F WCI  35
EFFINGHAM      CLOUDY    41  35  79 E3        29.93R
FLORA          CLOUDY    44  35  71 SE3       29.92R
GALESBURG      CLOUDY    35  32  87 E6        29.89S WCI  30
JACKSONVILLE   CLOUDY    38  31  78 SE9       29.91R WCI  31
LACON          CLOUDY    37  33  85 CALM      29.90S
LAWRENCEVILLE  CLOUDY    42  35  76 E3        29.92F
LITCHFIELD     CLOUDY    40  33  75 S9        29.90S WCI  35
$$


CITY           SKY/WX    TMP DP  RH WIND       PRES   REMARKS
LINCOLN        CLOUDY    39  33  78 SE6       29.90F WCI  35
MACOMB         CLOUDY    37  32  84 SE10      29.90F WCI  29
MATTOON        CLOUDY    39  34  82 E5        29.89F
MT CARMEL AP   CLOUDY    42  33  72 CALM      29.91F
OLNEY-NOBLE AP CLOUDY    41  34  75 CALM      29.92S
PARIS          CLOUDY    40  34  80 CALM      29.92S
PEORIA         CLOUDY    38  33  82 E5        29.90F WCI  34
PONTIAC        CLOUDY    39  37  91 CALM      29.92S
RANTOUL        CLOUDY    41  34  77 CALM      29.91F
SPRINGFIELD    CLOUDY    41  33  73 SE7       29.90F
TAYLORVILLE    CLOUDY    39  32  75 CALM      29.91S
$$

...REGIONAL REPORTS...


CITY           SKY/WX    TMP DP  RH WIND       PRES   REMARKS
CHICAGO O`HARE CLOUDY    35  31  85 N6        29.89S WCI  30
KANKAKEE       CLOUDY    38  32  79 CALM      29.92R
MOLINE         CLOUDY    37  30  75 SE8       29.88F WCI  31
MOUNT STERLING CLOUDY    36  32  85 SE10      29.87F WCI  28
MOUNT VERNON   MOSUNNY   44  34  67 VRB6      29.92S
PITTSFIELD     CLOUDY    37  32  82 E8        29.88F WCI  31
QUINCY         CLOUDY    36  31  82 SE9       29.86F WCI  29
ROCKFORD       CLOUDY    36  30  79 CALM      29.91S
$$


CITY           SKY/WX    TMP DP  RH WIND       PRES   REMARKS
BURLINGTON     CLOUDY    34  30  85 VRB3      29.88F
CEDAR RAPIDS   CLOUDY    31  28  89 E8        29.86F FOG     WCI  23
DES MOINES     CLOUDY    32  29  88 E9        29.83F WCI  24
KIRKSVILLE     CLOUDY    33  31  92 E12       29.83S WCI  24
OTTUMWA        CLOUDY    31  29  92 E13       29.84F FOG     WCI  21
ST LOUIS       MOSUNNY   46  33  60 SE12      29.88F
$$


CITY           SKY/WX    TMP DP  RH WIND       PRES   REMARKS
TERRE HAUTE    CLOUDY    41  33  73 W3        29.92S
EVANSVILLE     CLOUDY    43  34  70 E6        29.92F
INDIANAPOLIS   CLOUDY    40  33  76 NW8       29.89S WCI  34
LAFAYETTE      CLOUDY    39  34  82 NW7       29.90S WCI  34
MADISON        CLOUDY    37  31  78 N6        29.88S WCI  32
MILWAUKEE      CLOUDY    38  33  82 NW8       29.87F WCI  32
$$






USA.gov is the U.S. government's official web portal to all federal, state and local government web resources and services.